Regional Weather Roundup
Issued by NWS

Home | Current Version | Previous Version | Graphics & Text | Print | Product List | Glossary On
Versions: 1 2 3 4 5 6 7 8 9 10 11 12 13 14 15 16 17 18 19 20 21 22 23 24 25 26 27 28 29 30 31 32 33 34 35 36 37 38 39 40 41 42 43 44 45 46 47 48 49 50
000
ASUS43 KLMK 281502
RWRKY
KENTUCKY REGIONAL WEATHER ROUNDUP
NATIONAL WEATHER SERVICE LOUISVILLE KY
1100 AM EDT THU JUL 28 2016

NOTE "FAIR" INDICATES FEW OR NO CLOUDS BELOW 12,000 FEET
WITH NO SIGNIFICANT WEATHER AND/OR OBSTRUCTIONS TO VISIBILITY.

KYZ001>023-026-027-061>063-070>075-281600-
WESTERN AND SOUTH CENTRAL KENTUCKY

CITY           SKY/WX    TMP DP  RH WIND       PRES   REMARKS
PADUCAH        CLOUDY    79  74  84 SW3       29.92S
HENDERSON      NOT AVBL
OWENSBORO      CLOUDY    77  74  90 SW8       29.93S
HOPKINSVILLE   CLOUDY    72  72 100 SE6       29.92F
BOWLING GREEN  RAIN      75  71  87 CALM      29.95R
GLASGOW        NOT AVBL
$$

KYZ024-025-028>034-038-045-046-053-281600-
NORTH CENTRAL KENTUCKY

CITY           SKY/WX    TMP DP  RH WIND       PRES   REMARKS
LOUISVILLE/SDF CLOUDY    77  72  84 SW8       29.91S
LOUISVILLE/LOU CLOUDY    76  72  87 SW7       29.92S
FORT KNOX      NOT AVBL
$$

KYZ035>037-039>044-047>052-055>060-089>105-281600-
NORTHEAST KENTUCKY

CITY           SKY/WX    TMP DP  RH WIND       PRES   REMARKS
LEXINGTON      HVY RAIN  71  70  96 CALM      29.93S FOG
COVINGTON      CLOUDY    74  71  91 CALM      29.93S
FRANKFORT      RAIN      72  68  87 SE5       29.92R
$$

KYZ054-064>069-076>088-106>120-281600-
SOUTHEAST KENTUCKY

CITY           SKY/WX    TMP DP  RH WIND       PRES   REMARKS
JACKSON        CLOUDY    76  71  85 VRB3      29.96F
LONDON         CLOUDY    79  69  71 SW12G21   29.96S
SOMERSET       LGT RAIN  73  73 100 SW6       29.96S
MIDDLESBORO    CLOUDY    79  72  79 SW3       29.98F
MONTICELLO     CLOUDY   N/A N/A N/A W13       29.96F
$$




USA.gov is the U.S. government's official web portal to all federal, state and local government web resources and services.